• Join FlightAware (Why Join?)
  • Login
  • US Flag 
01:34PM EDT


 

Airport Tracker/Info


-or-


 

Live Flight TrackerFlight Track Log ✈ SWA378 ✈ 20-May-2013 ✈ KLAX - KATL

Flight Track Log - Related Links

Times and Time Zones

All times are in EDT time to prevent confusion due to time zone crossing. See the SWA378 flight status page for this flight to view local times or setup timezone preferences in your user account.

Time Position Orientation Groundspeed Altitude Reporting Facility
EDT Latitude Longitude Course Direction KTS MPH feet Rate Location/Type
01:27PM 33.9042 -118.5100 225° Southwest 210 242 3,100  Level Los Angeles Center
01:28PM 33.8294 -118.5239 189° South 265 305 5,200 2,460 Climbing Los Angeles Center
01:30PM 33.7467 -118.5219 179° South 281 323 8,300 2,520 Climbing Los Angeles Center
01:31PM 33.6819 -118.4700 146° Southeast 311 358 10,500 1,980 Climbing Los Angeles Center
01:32PM 33.6354 -118.3541 121° Southeast  Level FlightAware Approximate
01:32PM 33.6508 -118.3642 109° East 339 390 12,400  Level Los Angeles Center
01:33PM 33.6436 -118.2442 94° East 370 426 15,100 2,640 Climbing Los Angeles Center
01:34PM 33.6444 -118.0928 90° East 381 438 17,900 2,220 Climbing Los Angeles Center
01:35PM 33.6450 -117.9572 90° East 403 464 19,700 1,980 Climbing Los Angeles Center
01:36PM 33.6436 -117.8139 91° East 428 493 22,100 2,220 Climbing Los Angeles Center
01:37PM 33.6428 -117.6703 90° East 431 496 24,300 1,980 Climbing Los Angeles Center
01:38PM 33.6428 -117.5236 90° East 440 506 26,300 1,920 Climbing Los Angeles Center
01:39PM 33.6408 -117.3425 91° East 452 520 28,300 1,560 Climbing Los Angeles Center
01:40PM 33.6389 -117.1889 91° East 460 529 29,600 1,080 Climbing Los Angeles Center
01:41PM 33.6375 -117.0294 91° East 472 543 30,800 1,260 Climbing Los Angeles Center
01:42PM 33.6364 -116.8342 90° East 484 557 32,500 1,440 Climbing Los Angeles Center
01:43PM 33.6350 -116.6683 91° East 497 572 33,800 1,260 Climbing Los Angeles Center
01:44PM 33.6328 -116.5042 91° East 492 566 35,200 1,440 Climbing Los Angeles Center
01:45PM 33.6306 -116.3103 91° East 483 556 36,800 840 Climbing Los Angeles Center
01:46PM 33.6297 -116.1469 90° East 487 560 37,000 60 Climbing Los Angeles Center
01:47PM 33.6550 -115.9914 79° East 475 547 37,000  Level Los Angeles Center
01:48PM 33.6800 -115.8375 79° East 471 542 37,000  Level Los Angeles Center
01:49PM 33.7053 -115.6817 79° East 474 545 37,000  Level Los Angeles Center
01:50PM 33.7297 -115.5239 79° East 478 550 37,000  Level Los Angeles Center
01:51PM 33.7586 -115.3386 79° East 473 544 37,000  Level Los Angeles Center
01:52PM 33.7833 -115.1808 79° East 479 551 37,000  Level Los Angeles Center
01:54PM 33.8075 -115.0239 79° East 477 549 37,000  Level Los Angeles Center
01:55PM 33.8381 -114.8378 79° East 474 545 37,000  Level Los Angeles Center
01:56PM 33.8631 -114.6772 79° East 486 559 37,000  Level Los Angeles Center
01:57PM 33.8872 -114.5192 80° East 483 556 37,000  Level Los Angeles Center
01:58PM 33.9156 -114.3292 80° East 481 554 37,000  Level Los Angeles Center
01:59PM 33.9403 -114.1692 79° East 485 558 37,000  Level Los Angeles Center
02:00PM 33.9633 -114.0103 80° East 483 556 37,000  Level Los Angeles Center
02:01PM 33.9831 -113.8147 83° East 489 563 37,000  Level Los Angeles Center
02:01PM 33.9978 -113.7703 68° East 485 558 37,000  Level Albuquerque Center
02:02PM 34.0211 -113.6097 80° East 486 559 37,000  Level Albuquerque Center
02:03PM 34.0428 -113.4486 81° East 488 562 37,000  Level Albuquerque Center
02:05PM 34.0650 -113.2861 81° East 489 563 37,000  Level Albuquerque Center
02:06PM 34.0917 -113.0922 81° East 490 564 37,000  Level Albuquerque Center
02:07PM 34.1147 -112.9292 80° East 493 567 37,000  Level Albuquerque Center
02:08PM 34.1356 -112.7667 81° East 491 565 37,000  Level Albuquerque Center
02:09PM 34.1575 -112.6042 81° East 491 565 37,000  Level Albuquerque Center
02:10PM 34.1792 -112.4414 81° East 492 566 37,000  Level Albuquerque Center
02:11PM 34.2000 -112.2761 81° East 495 570 37,000  Level Albuquerque Center
02:12PM 34.2225 -112.1103 81° East 498 573 37,000  Level Albuquerque Center
02:13PM 34.2436 -111.9439 81° East 496 571 37,000  Level Albuquerque Center
02:14PM 34.2692 -111.7439 81° East 495 570 37,000  Level Albuquerque Center
02:15PM 34.2897 -111.5778 81° East 495 570 37,000  Level Albuquerque Center
02:16PM 34.3094 -111.4133 82° East 493 567 37,000  Level Albuquerque Center
02:17PM 34.3294 -111.2494 82° East 492 566 37,000  Level Albuquerque Center
02:18PM 34.3483 -111.0878 82° East 489 563 37,000  Level Albuquerque Center
02:19PM 34.3683 -110.9264 81° East 487 560 37,000  Level Albuquerque Center
02:20PM 34.3878 -110.7656 82° East 485 558 37,000  Level Albuquerque Center
02:21PM 34.4075 -110.6050 81° East 483 556 37,000  Level Albuquerque Center
02:22PM 34.4297 -110.4108 82° East 486 559 37,000  Level Albuquerque Center
02:23PM 34.4489 -110.2378 82° East 497 572 37,000  Level Albuquerque Center
02:24PM 34.4631 -110.0736 84° East 498 573 37,000  Level Albuquerque Center
02:25PM 34.4844 -109.8894 82° East 497 572 37,000  Level Albuquerque Center
02:26PM 34.5028 -109.7328 82° East 494 568 37,000  Level Albuquerque Center
02:27PM 34.5206 -109.5739 82° East 495 570 37,000  Level Albuquerque Center
02:28PM 34.5400 -109.3881 83° East 496 571 37,000  Level Albuquerque Center
02:29PM 34.5569 -109.2289 83° East 497 572 37,000  Level Albuquerque Center
02:30PM 34.5764 -109.0436 83° East 497 572 37,000  Level Albuquerque Center
02:31PM 34.5936 -108.8800 83° East 506 582 37,000  Level Albuquerque Center
02:32PM 34.6122 -108.6889 83° East 511 588 37,000  Level Albuquerque Center
02:33PM 34.6281 -108.5261 83° East 510 587 37,000  Level Albuquerque Center
02:34PM 34.6458 -108.3436 83° East 513 590 37,000  Level Albuquerque Center
02:35PM 34.6631 -108.1711 83° East 514 592 37,000  Level Albuquerque Center
02:36PM 34.6789 -107.9989 84° East 514 592 37,000  Level Albuquerque Center
02:37PM 34.6947 -107.8261 84° East 515 593 37,000  Level Albuquerque Center
02:39PM 34.7100 -107.6547 84° East 520 598 37,000  Level Albuquerque Center
02:40PM 34.7289 -107.4464 84° East 517 595 37,000  Level Albuquerque Center
02:41PM 34.7428 -107.2758 84° East 515 593 37,000  Level Albuquerque Center
02:42PM 34.7569 -107.1047 84° East 513 590 37,000  Level Albuquerque Center
02:43PM 34.7714 -106.9336 84° East 515 593 37,000  Level Albuquerque Center
02:44PM 34.7839 -106.7628 85° East 515 593 37,000  Level Albuquerque Center
02:45PM 34.7997 -106.5936 83° East 513 590 37,000  Level Albuquerque Center
02:46PM 34.8164 -106.3878 84° East 513 590 37,000  Level Albuquerque Center
02:47PM 34.8294 -106.2172 85° East 511 588 37,000  Level Albuquerque Center
02:48PM 34.8417 -106.0469 85° East 509 586 37,000  Level Albuquerque Center
02:49PM 34.8575 -105.8500 84° East 508 585 37,000  Level Albuquerque Center
02:50PM 34.8706 -105.6778 85° East 507 583 37,000  Level Albuquerque Center
02:51PM 34.8819 -105.5067 85° East 505 581 37,000  Level Albuquerque Center
02:52PM 34.8956 -105.3350 84° East 505 581 37,000  Level Albuquerque Center
02:53PM 34.9081 -105.1619 85° East 508 585 37,000  Level Albuquerque Center
02:54PM 34.9192 -104.9878 86° East 510 587 37,000  Level Albuquerque Center
02:55PM 34.9314 -104.8136 85° East 513 590 37,000  Level Albuquerque Center
02:56PM 34.9433 -104.6386 85° East 515 593 37,000  Level Albuquerque Center
02:57PM 34.9564 -104.4356 85° East 514 592 37,000  Level Albuquerque Center
02:58PM 34.9672 -104.2608 86° East 518 596 37,000  Level Albuquerque Center
02:59PM 34.9786 -104.0867 85° East 518 596 37,000  Level Albuquerque Center
03:00PM 34.9886 -103.9125 86° East 517 595 37,000  Level Albuquerque Center
03:01PM 35.0003 -103.7383 85° East 515 593 37,000  Level Albuquerque Center
03:02PM 35.0100 -103.5625 86° East 517 595 37,000  Level Albuquerque Center
03:03PM 35.0211 -103.3581 86° East 516 594 37,000  Level Albuquerque Center
03:04PM 35.0308 -103.1819 86° East 517 595 37,000  Level Albuquerque Center
03:05PM 35.0400 -103.0053 86° East 517 595 37,000  Level Albuquerque Center
03:06PM 35.0481 -102.8361 87° East 515 593 37,000  Level Albuquerque Center
03:07PM 35.0567 -102.6633 86° East 512 589 37,000  Level Albuquerque Center
03:08PM 35.0644 -102.4903 87° East 511 588 37,000  Level Albuquerque Center
03:09PM 35.0736 -102.2844 87° East 510 587 37,000  Level Albuquerque Center
03:10PM 35.0817 -102.1128 87° East 510 587 37,000  Level Albuquerque Center
03:11PM 35.0917 -101.9300 86° East 511 588 37,000  Level Albuquerque Center
03:13PM 35.0983 -101.7547 87° East 513 590 37,000  Level Albuquerque Center
03:14PM 35.1053 -101.5925 87° East 513 590 37,000  Level Albuquerque Center
03:15PM 35.1125 -101.4214 87° East 507 583 37,000  Level Albuquerque Center
03:16PM 35.1194 -101.2294 87° East 506 582 37,000  Level Albuquerque Center
03:17PM 35.1253 -101.0594 88° East 505 581 37,000  Level Albuquerque Center
03:18PM 35.1322 -100.8878 87° East 507 583 37,000 240 Level Albuquerque Center
03:19PM 35.1372 -100.7125 88° East 514 592 37,500 780 Climbing Albuquerque Center
03:20PM 35.1444 -100.5019 88° East 519 597 38,700 720 Climbing Albuquerque Center
03:21PM 35.1489 -100.3428 88° East 520 598 39,000 120 Climbing Albuquerque Center
03:22PM 35.1539 -100.1675 88° East 517 595 39,000  Level Albuquerque Center
03:23PM 35.1706 -99.9961 83° East 512 589 39,000  Level Albuquerque Center
03:24PM 35.2186 -99.8017 73° East 501 577 39,000  Level Albuquerque Center
03:25PM 35.2567 -99.6400 74° East 497 572 39,000  Level Albuquerque Center
03:26PM 35.2981 -99.4781 73° East 497 572 39,000  Level Albuquerque Center
03:27PM 35.3417 -99.3108 72° East 511 588 39,000  Level Albuquerque Center
03:27PM 35.3553 -99.2436 76° East 494 568 39,000  Level Fort Worth Center
03:28PM 35.4014 -99.0817 71° East 501 577 39,000  Level Fort Worth Center
03:29PM 35.4472 -98.9119 72° East 506 582 39,000  Level Fort Worth Center
03:30PM 35.4931 -98.7444 71° East 506 582 39,000  Level Fort Worth Center
03:31PM 35.5383 -98.5767 72° East 512 589 39,000  Level Fort Worth Center
03:32PM 35.5919 -98.4167 68° East 512 589 39,000  Level Fort Worth Center
03:33PM 35.6411 -98.2539 70° East 507 583 39,000  Level Fort Worth Center
03:34PM 35.6625 -98.1886 68° East 511 588 39,000  Level Kansas City Center
03:34PM 35.6942 -98.0933 68° East 507 583 39,000  Level Fort Worth Center
03:36PM 35.7667 -97.8683 68° East 503 579 39,000  Level Kansas City Center
03:37PM 35.8200 -97.7086 68° East 500 575 39,000  Level Kansas City Center
03:38PM 35.8739 -97.5492 67° East 502 578 39,000  Level Kansas City Center
03:39PM 35.9233 -97.3861 69° East 503 579 39,000  Level Kansas City Center
03:40PM 35.9711 -97.1797 74° East 514 592 39,000  Level Kansas City Center
03:41PM 35.9894 -97.0036 83° East 515 593 39,000  Level Kansas City Center
03:42PM 35.9989 -96.8286 86° East 511 588 39,000  Level Kansas City Center
03:43PM 36.0008 -96.6531 89° East 510 587 39,000  Level Kansas City Center
03:44PM 35.9928 -96.4822 93° East 503 579 39,000  Level Kansas City Center
03:45PM 35.9697 -96.3047 99° East 498 573 39,000  Level Kansas City Center
03:46PM 35.9486 -96.1361 99° East 498 573 39,000  Level Kansas City Center
03:47PM 35.9283 -95.9675 98° East 499 574 39,000  Level Kansas City Center
03:48PM 35.9064 -95.7997 99° East 498 573 39,000  Level Kansas City Center
03:49PM 35.8861 -95.6314 98° East 500 575 39,000  Level Kansas City Center
03:50PM 35.8586 -95.4297 99° East 501 577 39,000  Level Kansas City Center
03:51PM 35.8375 -95.2617 99° East 501 577 39,000  Level Kansas City Center
03:52PM 35.8158 -95.0947 99° East 498 573 39,000  Level Kansas City Center
03:53PM 35.7942 -94.9253 99° East 500 575 39,000  Level Kansas City Center
03:54PM 35.7831 -94.8683 104° East 488 562 39,000  Level Memphis Center
03:55PM 35.7578 -94.6981 100° East 488 562 39,000  Level Memphis Center
03:56PM 35.7342 -94.5358 100° East 488 562 39,000  Level Memphis Center
03:57PM 35.7106 -94.3683 100° East 488 562 39,000  Level Memphis Center
03:58PM 35.6886 -94.2039 99° East 488 562 39,000  Level Memphis Center
03:59PM 35.6650 -94.0214 99° East 488 562 39,000  Level Memphis Center
04:00PM 35.6425 -93.8594 100° East 493 567 39,000  Level Memphis Center
04:01PM 35.6178 -93.6975 101° East 483 556 39,000  Level Memphis Center
04:02PM 35.5928 -93.5356 101° East 483 556 39,000  Level Memphis Center
04:03PM 35.5750 -93.4097 100° East 478 550 39,000  Level Memphis Center
04:04PM 35.5503 -93.2253 99° East 473 544 39,000  Level Memphis Center
04:05PM 35.5247 -93.0561 100° East 472 543 39,000  Level Memphis Center
04:06PM 35.5028 -92.9100 100° East 464 534 39,000  Level Memphis Center
04:07PM 35.4769 -92.7486 101° East 464 534 39,000  Level Memphis Center
04:08PM 35.4525 -92.5947 101° East 476 548 39,000  Level Memphis Center
04:09PM 35.4281 -92.4414 101° East 476 548 39,000  Level Memphis Center
04:10PM 35.4036 -92.2828 101° East 471 542 39,000  Level Memphis Center
04:11PM 35.3786 -92.1269 101° East 471 542 39,000  Level Memphis Center
04:12PM 35.3517 -91.9658 102° East 471 542 39,000  Level Memphis Center
04:13PM 35.3286 -91.8103 100° East 471 542 39,000  Level Memphis Center
04:14PM 35.3011 -91.6547 102° East 471 542 39,000  Level Memphis Center
04:15PM 35.2756 -91.4989 101° East 471 542 39,000  Level Memphis Center
04:16PM 35.2517 -91.3461 101° East 471 542 39,000  Level Memphis Center
04:17PM 35.2258 -91.1933 102° East 466 536 39,000  Level Memphis Center
04:18PM 35.1994 -91.0458 102° East 456 525 39,000  Level Memphis Center
04:19PM 35.1753 -90.8931 101° East 451 519 39,000  Level Memphis Center
04:20PM 35.1486 -90.7406 102° East 451 519 39,000  Level Memphis Center
04:21PM 35.1239 -90.5881 101° East 451 519 39,000  Level Memphis Center
04:22PM 35.0969 -90.4358 102° East 451 519 39,000  Level Memphis Center
04:23PM 35.0700 -90.2836 102° East 451 519 39,000  Level Memphis Center
04:24PM 35.0406 -90.1186 102° East 451 519 39,000  Level Memphis Center
04:25PM 35.0172 -89.9692 101° East 451 519 39,000  Level Memphis Center
04:26PM 35.0000 -89.8172 98° East 451 519 39,000  Level Memphis Center
04:27PM 34.9761 -89.6525 100° East 469 540 39,000  Level Memphis Center
04:28PM 34.9503 -89.5211 103° East 469 540 39,000  Level Memphis Center
04:29PM 34.9261 -89.3744 101° East 452 520 39,000  Level Memphis Center
04:30PM 34.9042 -89.2228 100° East 447 514 39,000  Level Memphis Center
04:31PM 34.8797 -89.0736 101° East 452 520 39,000  Level Memphis Center
04:32PM 34.8572 -88.9247 100° East 452 520 39,000  Level Memphis Center
04:33PM 34.8322 -88.7631 101° East 452 520 39,000  Level Memphis Center
04:34PM 34.8094 -88.6119 100° East 445 512 39,000  Level Memphis Center
04:35PM 34.7842 -88.4658 102° East 452 520 39,000 -180 Level Memphis Center
04:36PM 34.7608 -88.3144 101° East 447 514 38,700 -660 Descending Memphis Center
04:37PM 34.7353 -88.1586 101° East 453 521 37,700 -960 Descending Memphis Center
04:38PM 34.7139 -88.0075 100° East 460 529 36,800 -960 Descending Memphis Center
04:39PM 34.6878 -87.8542 102° East 468 539 35,800 -1,020 Descending Memphis Center
04:40PM 34.6661 -87.7058 100° East 455 524 34,800 -1,020 Descending Memphis Center
04:41PM 34.6397 -87.5578 102° East 449 517 33,800 -660 Descending Memphis Center
04:42PM 34.5964 -87.3014 102° East 471 542 33,000 -300 Descending Atlanta Center
04:43PM 34.5669 -87.1489 103° East 465 535 33,000 -300 Level Atlanta Center
04:45PM 34.5301 -86.9853 105° East  Level FlightAware Approximate
04:45PM 34.5094 -86.8469 105° East 455 524 32,100  Level Atlanta Center
04:46PM 34.4794 -86.6972 104° East 455 524 31,100 -1,080 Descending Atlanta Center
04:47PM 34.4511 -86.5478 103° East 455 524 30,000 -1,080 Descending Atlanta Center
04:48PM 34.4228 -86.4033 103° East 450 518 29,000 -960 Descending Atlanta Center
04:49PM 34.3942 -86.2592 103° East 444 511 28,100 -900 Descending Atlanta Center
04:50PM 34.3672 -86.1200 103° East 438 504 27,200 -900 Descending Atlanta Center
04:51PM 34.3383 -85.9808 104° East 433 498 26,300 -900 Descending Atlanta Center
04:52PM 34.3133 -85.8444 102° East 428 493 25,400 -1,020 Descending Atlanta Center
04:53PM 34.2797 -85.7031 106° East 407 468 24,300 -1,080 Descending Atlanta Center
04:54PM 34.2544 -85.5694 103° East 402 463 23,300 -1,500 Descending Atlanta Center
04:55PM 34.2308 -85.4458 103° East 388 447 21,400 -1,980 Descending Atlanta Center
04:56PM 34.2050 -85.3197 104° East 383 441 19,400 -2,040 Descending Atlanta Center
04:57PM 34.1772 -85.1914 105° East 378 435 17,400 -2,100 Descending Atlanta Center
04:58PM 34.1342 -85.0828 116° Southeast 372 428 15,200 -1,740 Descending Atlanta Center
04:59PM 34.0639 -84.9917 133° Southeast 365 420 14,000 -720 Descending Atlanta Center
05:00PM 33.9978 -84.9083 134° Southeast 353 406 13,800 -840 Descending Atlanta Center
05:01PM 33.9317 -84.8225 133° Southeast 348 400 12,400 -900 Descending Atlanta Center
05:02PM 33.8675 -84.7442 135° Southeast 337 388 12,000 -300 Descending Atlanta Center
05:03PM 33.8500 -84.7167 127° Southeast 295 339 12,000  Level Atlanta TRACON
05:04PM 33.8000 -84.6500 132° Southeast 261 300 12,000  Level Atlanta TRACON
05:05PM 33.7500 -84.5833 132° Southeast 261 300 12,000 -420 Level Atlanta TRACON
05:06PM 33.7333 -84.5000 104° East 262 302 11,200 -1,020 Descending Atlanta TRACON
05:07PM 33.7333 -84.4167 90° East 264 304 10,000 -1,440 Descending Atlanta TRACON
05:08PM 33.7333 -84.3333 90° East 253 291 8,400 -1,560 Descending Atlanta TRACON
05:09PM 33.7333 -84.2500 90° East 245 282 6,900 -1,440 Descending Atlanta TRACON
05:10PM 33.7333 -84.1667 90° East 239 275 5,600 -960 Descending Atlanta TRACON
05:11PM 33.7333 -84.1000 90° East 234 269 5,000 -300 Descending Atlanta TRACON
05:12PM 33.7000 -84.0500 129° Southeast 224 258 5,000  Level Atlanta TRACON
05:13PM 33.6500 -84.0833 209° Southwest 205 236 5,000  Level Atlanta TRACON
05:14PM 33.6500 -84.1500 270° West 189 217 5,000 -480 Level Atlanta TRACON
05:15PM 33.6500 -84.2167 270° West 194 223 4,100 -1,020 Descending Atlanta TRACON
05:16PM 33.6500 -84.2833 270° West 196 226 3,100 -1,080 Descending Atlanta TRACON
05:17PM 33.6500 -84.3333 270° West 177 204 2,100 -900 Descending Atlanta TRACON
05:18PM 33.6500 -84.3833 270° West 141 162 1,300 -840 Descending Atlanta TRACON
05:20PM 33.6333 -84.4167 North  Level FlightAware Approximate
05:27PM 33.6367 -84.4279 North  Level Estimated